Time,TemperatureF,DewpointF,PressureIn,WindDirection,WindDirectionDegrees,WindSpeedMPH,WindSpeedGustMPH,Humidity,HourlyPrecipIn,Conditions,Clouds,dailyrainin,SoftwareType,DateUTC
2013-05-26 00:03:00,60.0,-99.9,30.15,NW,313,8.0,12.0,-999,-99.99,,,-99.99,,2013-05-26 04:03:00,
2013-05-26 00:13:00,-999.0,-99.9,30.15,NW,308,8.0,11.0,-999,-99.99,,,-99.99,,2013-05-26 04:13:00,
2013-05-26 00:23:00,-999.0,-99.9,30.15,NW,306,9.0,11.0,-999,-99.99,,,-99.99,,2013-05-26 04:23:00,
2013-05-26 00:33:00,59.0,-99.9,30.15,NW,310,7.0,11.0,-999,-99.99,,,-99.99,,2013-05-26 04:33:00,
2013-05-26 00:43:00,59.0,-99.9,30.15,NW,319,10.0,11.0,-999,-99.99,,,-99.99,,2013-05-26 04:43:00,
2013-05-26 00:52:00,-999.0,-99.9,30.16,NW,315,9.0,12.0,-999,-99.99,,,-99.99,,2013-05-26 04:52:00,
2013-05-26 01:03:00,59.0,-99.9,30.16,NW,316,9.0,13.0,-999,-99.99,,,-99.99,,2013-05-26 05:03:00,
2013-05-26 01:12:00,-999.0,-99.9,30.16,NW,311,8.0,12.0,-999,-99.99,,,-99.99,,2013-05-26 05:12:00,
2013-05-26 01:22:00,58.0,-99.9,30.16,North,-999,-999.0,-999.0,-999,-99.99,,,-99.99,,2013-05-26 05:22:00,
2013-05-26 01:32:00,58.0,-99.9,30.16,NW,313,9.0,11.0,-999,-99.99,,,-99.99,,2013-05-26 05:32:00,
2013-05-26 01:42:00,58.0,-99.9,30.16,NW,319,11.0,14.0,-999,-99.99,,,-99.99,,2013-05-26 05:42:00,
2013-05-26 01:52:00,58.0,-99.9,30.16,North,-999,-999.0,-999.0,-999,-99.99,,,-99.99,,2013-05-26 05:52:00,
2013-05-26 02:01:00,58.0,-99.9,30.16,NW,319,10.0,12.0,-999,-99.99,,,-99.99,,2013-05-26 06:01:00,
2013-05-26 02:12:00,57.0,-99.9,30.16,North,-999,-999.0,-999.0,-999,-99.99,,,-99.99,,2013-05-26 06:12:00,
2013-05-26 02:22:00,-999.0,-99.9,30.16,NW,316,10.0,11.0,-999,-99.99,,,-99.99,,2013-05-26 06:22:00,
2013-05-26 02:32:00,57.0,-99.9,30.16,NW,317,10.0,14.0,-999,-99.99,,,-99.99,,2013-05-26 06:32:00,
2013-05-26 02:42:00,57.0,-99.9,30.15,North,-999,-999.0,-999.0,-999,-99.99,,,-99.99,,2013-05-26 06:42:00,
2013-05-26 02:52:00,57.0,-99.9,30.15,North,-999,-999.0,-999.0,-999,-99.99,,,-99.99,,2013-05-26 06:52:00,
2013-05-26 03:02:00,57.0,-99.9,30.15,NW,317,9.0,13.0,-999,-99.99,,,-99.99,,2013-05-26 07:02:00,
2013-05-26 03:11:00,56.0,-99.9,30.15,NW,320,9.0,11.0,-999,-99.99,,,-99.99,,2013-05-26 07:11:00,
2013-05-26 03:22:00,55.0,-99.9,30.16,North,-999,-999.0,-999.0,-999,-99.99,,,-99.99,,2013-05-26 07:22:00,
2013-05-26 03:32:00,55.0,-99.9,30.16,NW,318,10.0,13.0,-999,-99.99,,,-99.99,,2013-05-26 07:32:00,
2013-05-26 03:42:00,55.0,-99.9,30.15,North,-999,-999.0,-999.0,-999,-99.99,,,-99.99,,2013-05-26 07:42:00,
2013-05-26 03:52:00,55.0,-99.9,30.15,North,-999,-999.0,-999.0,-999,-99.99,,,-99.99,,2013-05-26 07:52:00,
2013-05-26 04:02:00,55.0,-99.9,30.15,NW,318,10.0,12.0,-999,-99.99,,,-99.99,,2013-05-26 08:02:00,
2013-05-26 04:12:00,55.0,-99.9,30.16,NW,321,11.0,13.0,-999,-99.99,,,-99.99,,2013-05-26 08:12:00,
2013-05-26 04:22:00,-999.0,-99.9,30.16,NW,319,10.0,13.0,-999,-99.99,,,-99.99,,2013-05-26 08:22:00,
2013-05-26 04:32:00,55.0,-99.9,30.16,NW,320,8.0,13.0,-999,-99.99,,,-99.99,,2013-05-26 08:32:00,
2013-05-26 04:42:00,54.0,-99.9,30.16,North,-999,-999.0,-999.0,-999,-99.99,,,-99.99,,2013-05-26 08:42:00,
2013-05-26 04:53:00,-999.0,-99.9,30.16,NW,315,7.0,8.0,-999,-99.99,,,-99.99,,2013-05-26 08:53:00,
2013-05-26 05:01:00,54.0,-99.9,30.16,NW,315,6.0,12.0,-999,-99.99,,,-99.99,,2013-05-26 09:01:00,
2013-05-26 05:11:00,54.0,-99.9,30.16,NW,312,7.0,10.0,-999,-99.99,,,-99.99,,2013-05-26 09:11:00,
2013-05-26 05:22:00,54.0,-99.9,30.17,North,-999,-999.0,-999.0,-999,-99.99,,,-99.99,,2013-05-26 09:22:00,
2013-05-26 05:34:00,54.0,-99.9,30.17,NW,319,7.0,10.0,-999,-99.99,,,-99.99,,2013-05-26 09:34:00,
2013-05-26 05:43:00,-999.0,-99.9,30.17,NW,313,7.0,11.0,-999,-99.99,,,-99.99,,2013-05-26 09:43:00,
2013-05-26 05:53:00,-999.0,-99.9,30.17,NW,317,8.0,13.0,-999,-99.99,,,-99.99,,2013-05-26 09:53:00,
2013-05-26 06:03:00,53.0,-99.9,30.18,NW,321,9.0,13.0,-999,-99.99,,,-99.99,,2013-05-26 10:03:00,
2013-05-26 06:12:00,53.0,-99.9,30.18,NW,315,7.0,13.0,-999,-99.99,,,-99.99,,2013-05-26 10:12:00,
2013-05-26 06:23:00,53.0,-99.9,30.18,North,-999,-999.0,-999.0,-999,-99.99,,,-99.99,,2013-05-26 10:23:00,
2013-05-26 06:33:00,54.0,-99.9,30.18,NNW,328,7.0,11.0,-999,-99.99,,,-99.99,,2013-05-26 10:33:00,
2013-05-26 06:42:00,-999.0,-99.9,30.18,NW,322,10.0,13.0,-999,-99.99,,,-99.99,,2013-05-26 10:42:00,
2013-05-26 06:52:00,-999.0,-99.9,30.19,NW,315,11.0,13.0,-999,-99.99,,,-99.99,,2013-05-26 10:52:00,
2013-05-26 07:03:00,54.0,-99.9,30.19,NW,316,11.0,14.0,-999,-99.99,,,-99.99,,2013-05-26 11:03:00,
2013-05-26 07:12:00,54.0,-99.9,30.19,North,-999,-999.0,-999.0,-999,-99.99,,,-99.99,,2013-05-26 11:12:00,
2013-05-26 07:22:00,54.0,-99.9,30.20,North,-999,-999.0,-999.0,-999,-99.99,,,-99.99,,2013-05-26 11:22:00,
2013-05-26 07:33:00,55.0,-99.9,30.20,NW,316,10.0,13.0,-999,-99.99,,,-99.99,,2013-05-26 11:33:00,
2013-05-26 07:43:00,55.0,-99.9,30.19,North,-999,-999.0,-999.0,-999,-99.99,,,-99.99,,2013-05-26 11:43:00,
2013-05-26 07:52:00,55.0,-99.9,30.20,North,-999,-999.0,-999.0,-999,-99.99,,,-99.99,,2013-05-26 11:52:00,
2013-05-26 08:02:00,56.0,-99.9,30.19,NW,318,12.0,19.0,-999,-99.99,,,-99.99,,2013-05-26 12:02:00,
2013-05-26 08:12:00,-999.0,-99.9,30.20,NW,314,13.0,18.0,-999,-99.99,,,-99.99,,2013-05-26 12:12:00,
2013-05-26 08:22:00,-999.0,-99.9,30.20,NW,317,16.0,20.0,-999,-99.99,,,-99.99,,2013-05-26 12:22:00,
2013-05-26 08:32:00,56.0,-99.9,30.20,NW,310,13.0,19.0,-999,-99.99,,,-99.99,,2013-05-26 12:32:00,
2013-05-26 08:42:00,-999.0,-99.9,30.21,NW,323,12.0,15.0,-999,-99.99,,,-99.99,,2013-05-26 12:42:00,
2013-05-26 08:52:00,57.0,-99.9,30.21,North,-999,-999.0,-999.0,-999,-99.99,,,-99.99,,2013-05-26 12:52:00,
2013-05-26 09:02:00,57.0,-99.9,30.21,NW,323,9.0,15.0,-999,-99.99,,,-99.99,,2013-05-26 13:02:00,
2013-05-26 09:11:00,-999.0,-99.9,30.21,NW,313,12.0,15.0,-999,-99.99,,,-99.99,,2013-05-26 13:11:00,
2013-05-26 09:22:00,-999.0,-99.9,30.21,NW,316,12.0,15.0,-999,-99.99,,,-99.99,,2013-05-26 13:22:00,
2013-05-26 09:32:00,58.0,-99.9,30.21,NW,314,9.0,15.0,-999,-99.99,,,-99.99,,2013-05-26 13:32:00,
2013-05-26 09:42:00,59.0,-99.9,30.21,NW,320,11.0,14.0,-999,-99.99,,,-99.99,,2013-05-26 13:42:00,
2013-05-26 09:52:00,-999.0,-99.9,30.21,WNW,298,12.0,13.0,-999,-99.99,,,-99.99,,2013-05-26 13:52:00,
2013-05-26 10:02:00,60.0,-99.9,30.21,NW,313,11.0,15.0,-999,-99.99,,,-99.99,,2013-05-26 14:02:00,
2013-05-26 10:11:00,-999.0,-99.9,30.21,WNW,303,11.0,15.0,-999,-99.99,,,-99.99,,2013-05-26 14:11:00,
2013-05-26 10:22:00,-999.0,-99.9,30.21,NW,307,13.0,17.0,-999,-99.99,,,-99.99,,2013-05-26 14:22:00,
2013-05-26 10:32:00,61.0,-99.9,30.21,NW,317,10.0,15.0,-999,-99.99,,,-99.99,,2013-05-26 14:32:00,
2013-05-26 10:42:00,62.0,-99.9,30.21,NNW,333,11.0,18.0,-999,-99.99,,,-99.99,,2013-05-26 14:42:00,
2013-05-26 10:52:00,61.0,-99.9,30.21,North,-999,-999.0,-999.0,-999,-99.99,,,-99.99,,2013-05-26 14:52:00,
2013-05-26 11:02:00,61.0,-99.9,30.21,NW,304,11.0,15.0,-999,-99.99,,,-99.99,,2013-05-26 15:02:00,
2013-05-26 11:12:00,61.0,-99.9,30.21,North,-999,-999.0,-999.0,-999,-99.99,,,-99.99,,2013-05-26 15:12:00,
2013-05-26 11:22:00,63.0,-99.9,30.20,North,-999,-999.0,-999.0,-999,-99.99,,,-99.99,,2013-05-26 15:22:00,
2013-05-26 11:33:00,63.0,-99.9,30.20,NW,325,15.0,18.0,-999,-99.99,,,-99.99,,2013-05-26 15:33:00,
2013-05-26 11:43:00,62.0,-99.9,30.20,NW,313,10.0,18.0,-999,-99.99,,,-99.99,,2013-05-26 15:43:00,
2013-05-26 11:53:00,62.0,-99.9,30.20,North,-999,-999.0,-999.0,-999,-99.99,,,-99.99,,2013-05-26 15:53:00,
2013-05-26 12:03:00,63.0,-99.9,30.19,NW,307,12.0,12.0,-999,-99.99,,,-99.99,,2013-05-26 16:03:00,
2013-05-26 12:12:00,-999.0,-99.9,30.20,NW,314,14.0,17.0,-999,-99.99,,,-99.99,,2013-05-26 16:12:00,
2013-05-26 12:23:00,-999.0,-99.9,30.19,NW,313,15.0,22.0,-999,-99.99,,,-99.99,,2013-05-26 16:23:00,
2013-05-26 12:33:00,65.0,-99.9,30.19,NNW,332,12.0,19.0,-999,-99.99,,,-99.99,,2013-05-26 16:33:00,
2013-05-26 12:43:00,64.0,-99.9,30.19,North,-999,-999.0,-999.0,-999,-99.99,,,-99.99,,2013-05-26 16:43:00,
2013-05-26 12:53:00,65.0,-99.9,30.19,NW,323,11.0,16.0,-999,-99.99,,,-99.99,,2013-05-26 16:53:00,
2013-05-26 13:02:00,65.0,-99.9,30.19,NW,326,17.0,20.0,-999,-99.99,,,-99.99,,2013-05-26 17:02:00,
2013-05-26 13:12:00,-999.0,-99.9,30.18,NW,321,16.0,26.0,-999,-99.99,,,-99.99,,2013-05-26 17:12:00,
2013-05-26 13:23:00,-999.0,-99.9,30.18,WNW,283,15.0,18.0,-999,-99.99,,,-99.99,,2013-05-26 17:23:00,
2013-05-26 13:32:00,66.0,-99.9,30.18,NW,319,11.0,20.0,-999,-99.99,,,-99.99,,2013-05-26 17:32:00,
2013-05-26 13:42:00,-999.0,-99.9,30.17,NW,322,15.0,21.0,-999,-99.99,,,-99.99,,2013-05-26 17:42:00,
2013-05-26 13:52:00,-999.0,-99.9,30.16,NW,325,15.0,20.0,-999,-99.99,,,-99.99,,2013-05-26 17:52:00,
2013-05-26 14:01:00,67.0,-99.9,30.16,NNW,336,13.0,21.0,-999,-99.99,,,-99.99,,2013-05-26 18:01:00,
2013-05-26 14:12:00,67.0,-99.9,30.15,NW,311,16.0,20.0,-999,-99.99,,,-99.99,,2013-05-26 18:12:00,
2013-05-26 14:22:00,67.0,-99.9,30.15,North,-999,-999.0,-999.0,-999,-99.99,,,-99.99,,2013-05-26 18:22:00,
2013-05-26 14:32:00,68.0,-99.9,30.14,NW,312,11.0,18.0,-999,-99.99,,,-99.99,,2013-05-26 18:32:00,
2013-05-26 14:42:00,68.0,-99.9,30.14,NW,316,13.0,16.0,-999,-99.99,,,-99.99,,2013-05-26 18:42:00,
2013-05-26 14:52:00,-999.0,-99.9,30.14,NW,315,15.0,19.0,-999,-99.99,,,-99.99,,2013-05-26 18:52:00,
2013-05-26 15:01:00,68.0,-99.9,30.14,WNW,301,9.0,19.0,-999,-99.99,,,-99.99,,2013-05-26 19:01:00,
2013-05-26 15:11:00,68.0,-99.9,30.14,NW,317,9.0,17.0,-999,-99.99,,,-99.99,,2013-05-26 19:11:00,
2013-05-26 15:22:00,69.0,-99.9,30.14,North,-999,-999.0,-999.0,-999,-99.99,,,-99.99,,2013-05-26 19:22:00,
2013-05-26 15:32:00,69.0,-99.9,30.14,NW,320,16.0,27.0,-999,-99.99,,,-99.99,,2013-05-26 19:32:00,
2013-05-26 15:42:00,-999.0,-99.9,30.14,NNW,333,14.0,22.0,-999,-99.99,,,-99.99,,2013-05-26 19:42:00,
2013-05-26 15:52:00,70.0,-99.9,30.14,North,-999,-999.0,-999.0,-999,-99.99,,,-99.99,,2013-05-26 19:52:00,
2013-05-26 16:02:00,70.0,-99.9,30.14,NW,323,14.0,19.0,-999,-99.99,,,-99.99,,2013-05-26 20:02:00,
2013-05-26 16:11:00,70.0,-99.9,30.13,North,-999,-999.0,-999.0,-999,-99.99,,,-99.99,,2013-05-26 20:11:00,
2013-05-26 16:22:00,-999.0,-99.9,30.13,NW,305,13.0,16.0,-999,-99.99,,,-99.99,,2013-05-26 20:22:00,
2013-05-26 16:32:00,70.0,-99.9,30.13,NW,324,12.0,17.0,-999,-99.99,,,-99.99,,2013-05-26 20:32:00,
2013-05-26 16:42:00,71.0,-99.9,30.13,NW,326,11.0,21.0,-999,-99.99,,,-99.99,,2013-05-26 20:42:00,
2013-05-26 16:53:00,71.0,-99.9,30.12,North,-999,-999.0,-999.0,-999,-99.99,,,-99.99,,2013-05-26 20:53:00,
2013-05-26 17:02:00,71.0,-99.9,30.12,NW,324,13.0,16.0,-999,-99.99,,,-99.99,,2013-05-26 21:02:00,
2013-05-26 17:12:00,-999.0,-99.9,30.12,NW,317,9.0,17.0,-999,-99.99,,,-99.99,,2013-05-26 21:12:00,
2013-05-26 17:22:00,72.0,-99.9,30.12,North,-999,-999.0,-999.0,-999,-99.99,,,-99.99,,2013-05-26 21:22:00,
2013-05-26 17:33:00,72.0,-99.9,30.12,NNW,330,11.0,17.0,-999,-99.99,,,-99.99,,2013-05-26 21:33:00,
2013-05-26 17:43:00,72.0,-99.9,30.12,NW,316,14.0,19.0,-999,-99.99,,,-99.99,,2013-05-26 21:43:00,
2013-05-26 17:53:00,72.0,-99.9,30.12,North,-999,-999.0,-999.0,-999,-99.99,,,-99.99,,2013-05-26 21:53:00,
2013-05-26 18:03:00,72.0,-99.9,30.12,NW,323,10.0,19.0,-999,-99.99,,,-99.99,,2013-05-26 22:03:00,
2013-05-26 18:12:00,72.0,-99.9,30.12,North,-999,-999.0,-999.0,-999,-99.99,,,-99.99,,2013-05-26 22:12:00,
2013-05-26 18:23:00,73.0,-99.9,30.12,North,-999,-999.0,-999.0,-999,-99.99,,,-99.99,,2013-05-26 22:23:00,
2013-05-26 18:33:00,72.0,-99.9,30.12,NW,314,10.0,15.0,-999,-99.99,,,-99.99,,2013-05-26 22:33:00,
2013-05-26 18:42:00,-999.0,-99.9,30.12,NW,316,13.0,16.0,-999,-99.99,,,-99.99,,2013-05-26 22:42:00,
2013-05-26 18:53:00,72.0,-99.9,30.12,North,-999,-999.0,-999.0,-999,-99.99,,,-99.99,,2013-05-26 22:53:00,
2013-05-26 19:02:00,72.0,-99.9,30.13,NW,325,10.0,13.0,-999,-99.99,,,-99.99,,2013-05-26 23:02:00,
2013-05-26 19:12:00,-999.0,-99.9,30.12,NW,307,8.0,11.0,-999,-99.99,,,-99.99,,2013-05-26 23:12:00,
2013-05-26 19:22:00,73.0,-99.9,30.13,North,-999,-999.0,-999.0,-999,-99.99,,,-99.99,,2013-05-26 23:22:00,
2013-05-26 19:32:00,73.0,-99.9,30.13,NW,321,12.0,15.0,-999,-99.99,,,-99.99,,2013-05-26 23:32:00,
2013-05-26 19:43:00,-999.0,-99.9,30.13,NNW,334,10.0,15.0,-999,-99.99,,,-99.99,,2013-05-26 23:43:00,
2013-05-26 19:52:00,72.0,-99.9,30.13,NW,320,7.0,12.0,-999,-99.99,,,-99.99,,2013-05-26 23:52:00,
2013-05-26 20:02:00,73.0,-99.9,30.14,NNW,339,7.0,11.0,-999,-99.99,,,-99.99,,2013-05-27 00:02:00,
2013-05-26 20:11:00,-999.0,-99.9,30.14,NNW,328,11.0,15.0,-999,-99.99,,,-99.99,,2013-05-27 00:11:00,
2013-05-26 20:22:00,-999.0,-99.9,30.14,NW,324,11.0,13.0,-999,-99.99,,,-99.99,,2013-05-27 00:22:00,
2013-05-26 20:32:00,71.0,-99.9,30.14,NNW,329,11.0,15.0,-999,-99.99,,,-99.99,,2013-05-27 00:32:00,
2013-05-26 20:42:00,70.0,-99.9,30.15,North,-999,-999.0,-999.0,-999,-99.99,,,-99.99,,2013-05-27 00:42:00,
2013-05-26 20:52:00,70.0,-99.9,30.15,North,-999,-999.0,-999.0,-999,-99.99,,,-99.99,,2013-05-27 00:52:00,
2013-05-26 21:01:00,70.0,-99.9,30.15,North,4,6.0,9.0,-999,-99.99,,,-99.99,,2013-05-27 01:01:00,
2013-05-26 21:11:00,70.0,-99.9,30.16,NNW,347,6.0,12.0,-999,-99.99,,,-99.99,,2013-05-27 01:11:00,
2013-05-26 21:22:00,-999.0,-99.9,30.16,NNW,329,5.0,11.0,-999,-99.99,,,-99.99,,2013-05-27 01:22:00,
2013-05-26 21:32:00,69.0,-99.9,30.16,NW,311,4.0,9.0,-999,-99.99,,,-99.99,,2013-05-27 01:32:00,
2013-05-26 21:42:00,-999.0,-99.9,30.17,NW,312,4.0,5.0,-999,-99.99,,,-99.99,,2013-05-27 01:42:00,
2013-05-26 21:52:00,67.0,-99.9,30.17,North,-999,-999.0,-999.0,-999,-99.99,,,-99.99,,2013-05-27 01:52:00,
2013-05-26 22:02:00,66.0,-99.9,30.18,WNW,303,1.0,3.0,-999,-99.99,,,-99.99,,2013-05-27 02:02:00,
2013-05-26 22:11:00,-999.0,-99.9,30.18,NW,306,5.0,5.0,-999,-99.99,,,-99.99,,2013-05-27 02:11:00,
2013-05-26 22:22:00,67.0,-99.9,30.19,North,-999,-999.0,-999.0,-999,-99.99,,,-99.99,,2013-05-27 02:22:00,
2013-05-26 22:32:00,66.0,-99.9,30.19,NW,309,4.0,6.0,-999,-99.99,,,-99.99,,2013-05-27 02:32:00,
2013-05-26 22:43:00,65.0,-99.9,30.19,NW,306,3.0,5.0,-999,-99.99,,,-99.99,,2013-05-27 02:43:00,
2013-05-26 22:52:00,64.0,-99.9,30.19,North,-999,-999.0,-999.0,-999,-99.99,,,-99.99,,2013-05-27 02:52:00,
2013-05-26 23:02:00,64.0,-99.9,30.19,West,277,2.0,2.0,-999,-99.99,,,-99.99,,2013-05-27 03:02:00,
2013-05-26 23:11:00,-999.0,-99.9,30.20,WNW,286,4.0,5.0,-999,-99.99,,,-99.99,,2013-05-27 03:11:00,
2013-05-26 23:22:00,65.0,-99.9,30.20,North,-999,-999.0,-999.0,-999,-99.99,,,-99.99,,2013-05-27 03:22:00,
2013-05-26 23:33:00,64.0,-99.9,30.20,NW,318,3.0,4.0,-999,-99.99,,,-99.99,,2013-05-27 03:33:00,
2013-05-26 23:43:00,64.0,-99.9,30.20,NW,324,3.0,4.0,-999,-99.99,,,-99.99,,2013-05-27 03:43:00,
2013-05-26 23:54:00,63.0,-99.9,30.21,North,-999,-999.0,-999.0,-999,-99.99,,,-99.99,,2013-05-27 03:54:00,